Knob Noster, MO

2:18 AM CST on February 09, 2016 (GMT -0600)
Whiteman Air Force Base

Weather History for KSZL - August, 2014

Change the Weather History Date:

Sunday, August 17, 2014

  Actual Average Record
Temperature  
Mean Temperature 73 °F -  
Max Temperature 78 °F 86 °F 102 °F (2003)
Min Temperature 68 °F 66 °F 53 °F (2013)
Cooling Degree Days 8    
Growing Degree Days 23 (Base 50)    
Moisture  
Dew Point 61 °F    
Average Humidity 70    
Maximum Humidity 83    
Minimum Humidity 51    
Precipitation  
Precipitation 0.00 in - - ()
Sea Level Pressure  
Sea Level Pressure 29.93 in    
Wind  
Wind Speed 5 mph (North)    
Max Wind Speed 9 mph    
Max Gust Speed -    
Visibility 9 miles    
Events      
Averages and records for this station are not official NWS values.
T = Trace of Precipitation, MM = Missing Value Source: NWS Daily Summary

Daily Weather History Graph

Daily Weather History Graph

Search for Another Location

Airport or City:

Trip Planner

Search our weather history database for the weather conditions in past years. The results will help you decide how hot, cold, wet, or windy it might be!

Date:

Astronomy

Aug. 17, 2014 Rise Set
Actual Time 6:29 AM CDT 8:05 PM CDT
Civil Twilight 6:01 AM CDT 8:34 PM CDT
Nautical Twilight 5:27 AM CDT 9:08 PM CDT
Astronomical Twilight 4:51 AM CDT 9:43 PM CDT
Moon No Moon Rise 2:11 PM CDT (8/17)
Length of Visible Light 14h 32m
Length of Day
13h 36m
Waning Gibbous, 48% of the Moon is Illuminated
Aug 17
Waning Gibbous
Aug 25
New
Sep 2
First Quarter
Sep 8
Full
Sep 15
Last Quarter

Hourly Weather History & Observations

Time (CDT) Temp. Dew Point Humidity Pressure Visibility Wind Dir Wind Speed Gust Speed Precip Events Conditions
12:58 AM 72.0 °F 61.9 °F 70% 29.88 in 10.0 mi NW 5.8 mph - N/A   Overcast
1:58 AM 71.6 °F 62.2 °F 72% 29.87 in 10.0 mi NW 3.5 mph - N/A   Overcast
2:13 AM 71.6 °F 62.6 °F 73% 29.88 in 10.0 mi NW 4.6 mph - N/A   Overcast
2:58 AM 71.2 °F 61.9 °F 72% 29.88 in 10.0 mi NNW 5.8 mph - N/A   Mostly Cloudy
3:58 AM 70.7 °F 61.2 °F 72% 29.88 in 10.0 mi NNW 5.8 mph - N/A   Mostly Cloudy
4:13 AM 69.8 °F 60.8 °F 73% 29.89 in 10.0 mi NNW 5.8 mph - N/A   Scattered Clouds
4:23 AM 69.8 °F 60.8 °F 73% 29.89 in 10.0 mi NNW 8.1 mph - N/A   Mostly Cloudy
4:28 AM 69.8 °F 60.8 °F 73% 29.89 in 10.0 mi Variable 6.9 mph - N/A   Scattered Clouds
4:43 AM 69.8 °F 60.8 °F 73% 29.89 in 10.0 mi NNW 5.8 mph - N/A   Mostly Cloudy
4:58 AM 70.5 °F 61.7 °F 74% 29.88 in 10.0 mi NNW 5.8 mph - N/A   Overcast
5:58 AM 70.2 °F 61.3 °F 74% 29.89 in 10.0 mi NNW 6.9 mph - N/A   Mostly Cloudy
6:43 AM 69.8 °F 60.8 °F 73% 29.92 in 10.0 mi North 4.6 mph - N/A   Overcast
6:53 AM 69.8 °F 60.8 °F 73% 29.92 in 10.0 mi NNW 4.6 mph - N/A   Overcast
6:58 AM 70.2 °F 61.2 °F 73% 29.92 in 10.0 mi NNW 4.6 mph - N/A   Overcast
7:48 AM 69.8 °F 60.8 °F 73% 29.94 in 10.0 mi North 5.8 mph - N/A   Overcast
7:58 AM 70.2 °F 61.0 °F 73% 29.93 in 10.0 mi North 6.9 mph - N/A   Overcast
8:13 AM 69.8 °F 60.8 °F 73% 29.95 in 10.0 mi North 5.8 mph - N/A   Mostly Cloudy
8:58 AM 70.9 °F 61.2 °F 71% 29.95 in 10.0 mi North 8.1 mph - N/A   Mostly Cloudy
9:38 AM 71.6 °F 60.8 °F 69% 29.96 in 10.0 mi North 8.1 mph - N/A   Mostly Cloudy
9:58 AM 71.2 °F 60.4 °F 69% 29.95 in 10.0 mi NNE 5.8 mph - N/A   Mostly Cloudy
10:08 AM 71.6 °F 60.8 °F 69% 29.97 in 10.0 mi North 6.9 mph - N/A   Mostly Cloudy
10:58 AM 71.6 °F 60.3 °F 67% 29.96 in 10.0 mi North 6.9 mph - N/A   Overcast
11:03 AM 71.6 °F 60.8 °F 69% 29.97 in 10.0 mi North 6.9 mph - N/A   Overcast
11:13 AM 71.6 °F 60.8 °F 69% 29.97 in 10.0 mi North 9.2 mph - N/A   Mostly Cloudy
11:58 AM 72.9 °F 59.5 °F 63% 29.96 in 10.0 mi NNW 8.1 mph - N/A   Mostly Cloudy
12:58 PM 73.4 °F 59.2 °F 61% 29.95 in 10.0 mi NNW 6.9 mph - N/A   Mostly Cloudy
1:58 PM 75.4 °F 58.3 °F 55% 29.95 in 10.0 mi NW 5.8 mph - N/A   Mostly Cloudy
2:08 PM 77.0 °F 59.0 °F 54% 29.96 in 10.0 mi Variable 4.6 mph - N/A   Scattered Clouds
2:48 PM 77.0 °F 59.0 °F 54% 29.96 in 10.0 mi North 5.8 mph - N/A   Mostly Cloudy
2:53 PM 77.0 °F 59.0 °F 54% 29.96 in 10.0 mi North 5.8 mph - N/A   Scattered Clouds
2:58 PM 76.8 °F 58.6 °F 53% 29.95 in 10.0 mi North 4.6 mph - N/A   Scattered Clouds
3:58 PM 78.6 °F 59.2 °F 51% 29.94 in 10.0 mi Variable 3.5 mph - N/A   Partly Cloudy
4:58 PM 78.4 °F 59.9 °F 53% 29.93 in 10.0 mi NNE 6.9 mph - N/A   Scattered Clouds
5:58 PM 77.0 °F 61.3 °F 58% 29.91 in 10.0 mi NNE 6.9 mph - N/A   Mostly Cloudy
6:58 PM 77.4 °F 60.8 °F 57% 29.89 in 10.0 mi NNE 4.6 mph - N/A   Clear
7:58 PM 74.5 °F 61.9 °F 65% 29.89 in 10.0 mi East 2.3 mph - N/A   Clear
8:58 PM 70.9 °F 61.7 °F 73% 29.91 in 10.0 mi East 2.3 mph - N/A   Clear
9:58 PM 69.1 °F 61.0 °F 75% 29.94 in 10.0 mi NNE 3.5 mph - N/A   Clear
10:28 PM 68.0 °F 60.8 °F 78% 29.95 in 10.0 mi NNE 3.5 mph - N/A   Clear
10:38 PM 68.0 °F 60.8 °F 78% 29.95 in 9.0 mi NNE 3.5 mph - N/A   Clear
10:48 PM 68.0 °F 60.8 °F 78% 29.95 in 4.0 mi NNE 1.2 mph - N/A   Haze
10:53 PM 68.0 °F 60.8 °F 78% 29.95 in 6.0 mi Calm Calm - N/A   Haze
10:58 PM 68.7 °F 61.3 °F 77% 29.94 in 5.0 mi Calm Calm - N/A   Haze
11:03 PM 68.0 °F 60.8 °F 78% 29.95 in 1.5 mi Calm Calm - N/A   Haze
11:08 PM 68.0 °F 60.8 °F 78% 29.94 in 0.8 mi Calm Calm - N/A   Haze
11:13 PM 68.0 °F 60.8 °F 78% 29.94 in 0.8 mi Calm Calm - N/A   Haze
11:18 PM 68.0 °F 60.8 °F 78% 29.94 in 1.0 mi Calm Calm - N/A   Haze
11:23 PM 68.0 °F 60.8 °F 78% 29.94 in 1.8 mi Calm Calm - N/A   Haze
11:33 PM 68.0 °F 60.8 °F 78% 29.94 in 3.0 mi Calm Calm - N/A   Haze
11:38 PM 68.0 °F 62.6 °F 83% 29.95 in 7.0 mi Calm Calm - N/A   Clear
11:48 PM 68.0 °F 60.8 °F 78% 29.96 in 10.0 mi West 2.3 mph - N/A   Clear
11:58 PM 68.5 °F 61.5 °F 78% 29.96 in 10.0 mi West 4.6 mph - N/A   Clear